Weather History for KJAN - April, 2012

Change the Weather History Date:

Monday, April 2, 2012

  Actual Average Record
Temperature  
Mean Temperature 73 °F 61 °F  
Max Temperature 85 °F 73 °F 90 °F (1918)
Min Temperature 60 °F 49 °F 30 °F (1992)
Degree Days  
Heating Degree Days 0 6  
Month to date heating degree days 0 12  
Since 1 July heating degree days 1639 2282  
Cooling Degree Days 8 2  
Month to date cooling degree days 16 4  
Year to date cooling degree days 159 41  
Growing Degree Days 22 (Base 50)    
Moisture  
Dew Point 65 °F    
Average Humidity 78    
Maximum Humidity 97    
Minimum Humidity 58    
Precipitation  
Precipitation 0.76 in 0.17 in 2.76 in (2000)
Month to date precipitation 0.76 0.36  
Year to date precipitation 20.12 15.13  
Sea Level Pressure  
Sea Level Pressure 29.87 in    
Wind  
Wind Speed 7 mph (South)    
Max Wind Speed 33 mph    
Max Gust Speed 46 mph    
Visibility 6 miles    
Events Rain , Thunderstorm    
T = Trace of Precipitation, MM = Missing Value Source: NWS Daily Summary

Daily Weather History Graph

Daily Weather History Graph

Search for Another Location

Airport or City:

Trip Planner

Search our weather history database for the weather conditions in past years. The results will help you decide how hot, cold, wet, or windy it might be!

Date:

Astronomy

Apr. 02, 2012 Rise Set
Actual Time 6:46 AM CDT 7:21 PM CDT
Civil Twilight 6:21 AM CDT 7:45 PM CDT
Nautical Twilight 5:52 AM CDT 8:15 PM CDT
Astronomical Twilight 5:23 AM CDT 8:44 PM CDT
Moon 3:11 PM CDT (4/2) 3:44 AM CDT (4/2)
Length of Visible Light 13h 24m
Length of Day
12h 34m
Waxing Gibbous, 78% of the Moon is Illuminated
Apr 2
Waxing Gibbous
Apr 6
Full
Apr 13
Last Quarter
Apr 21
New
Apr 29
First Quarter

Hourly Weather History & Observations

Time (CDT) Temp. Heat Index Dew Point Humidity Pressure Visibility Wind Dir Wind Speed Gust Speed Precip Events Conditions
12:54 AM 66.9 °F - 63.0 °F 87% 29.80 in 7.0 mi South 6.9 mph - N/A   Clear
1:54 AM 68.0 °F - 64.0 °F 87% 29.81 in 7.0 mi South 8.1 mph - N/A   Clear
2:54 AM 66.9 °F - 64.9 °F 93% 29.81 in 5.0 mi South 6.9 mph - N/A   Clear
3:54 AM 66.9 °F - 64.9 °F 93% 29.81 in 4.0 mi South 6.9 mph - N/A   Scattered Clouds
4:03 AM 66.2 °F - 66.2 °F 100% 29.82 in 4.0 mi South 6.9 mph - N/A   Mostly Cloudy
4:14 AM 68.0 °F - 66.2 °F 94% 29.82 in 4.0 mi South 9.2 mph - N/A   Overcast
4:43 AM 69.8 °F - 66.2 °F 88% 29.82 in 5.0 mi South 8.1 mph - N/A   Overcast
4:54 AM 68.0 °F - 66.0 °F 93% 29.82 in 5.0 mi South 8.1 mph - N/A   Overcast
5:11 AM 68.0 °F - 66.2 °F 94% 29.83 in 5.0 mi South 6.9 mph - N/A   Mostly Cloudy
5:54 AM 66.9 °F - 64.9 °F 93% 29.82 in 5.0 mi South 6.9 mph - N/A   Mostly Cloudy
6:54 AM 68.0 °F - 66.0 °F 93% 29.83 in 4.0 mi South 4.6 mph - N/A   Overcast
7:30 AM 68.0 °F - 66.2 °F 94% 29.85 in 4.0 mi SSE 3.5 mph - N/A   Scattered Clouds
7:54 AM 69.1 °F - 66.9 °F 93% 29.85 in 6.0 mi SSE 4.6 mph - N/A   Mostly Cloudy
8:41 AM 71.6 °F - 66.2 °F 83% 29.86 in 3.0 mi South 5.8 mph - N/A   Mostly Cloudy
8:49 AM 71.6 °F - 68.0 °F 88% 29.86 in 6.0 mi South 4.6 mph - N/A   Mostly Cloudy
8:54 AM 72.0 °F - 68.0 °F 87% 29.85 in 6.0 mi South 5.8 mph - N/A   Overcast
9:41 AM 75.2 °F - 68.0 °F 78% 29.86 in 8.0 mi South 6.9 mph - N/A   Scattered Clouds
9:54 AM 75.0 °F - 66.9 °F 76% 29.86 in 8.0 mi South 5.8 mph - N/A   Scattered Clouds
10:08 AM 75.2 °F - 66.2 °F 73% 29.87 in 8.0 mi South 9.2 mph - N/A   Mostly Cloudy
10:54 AM 78.1 °F - 68.0 °F 71% 29.87 in 8.0 mi South 9.2 mph - N/A   Mostly Cloudy
11:16 AM 78.8 °F - 66.2 °F 65% 29.87 in 8.0 mi South 4.6 mph - N/A   Scattered Clouds
11:39 AM 78.8 °F - 68.0 °F 69% 29.87 in 9.0 mi South 9.2 mph - N/A   Mostly Cloudy
11:54 AM 79.0 °F - 66.9 °F 66% 29.86 in 9.0 mi Variable 4.6 mph - N/A   Mostly Cloudy
12:06 PM 80.6 °F 82.7 °F 66.2 °F 61% 29.86 in 10.0 mi SE 8.1 mph - N/A   Mostly Cloudy
12:54 PM 82.0 °F 84.1 °F 66.0 °F 58% 29.83 in 10.0 mi SE 9.2 mph - N/A   Mostly Cloudy
1:54 PM 82.9 °F 85.4 °F 66.9 °F 58% 29.81 in 9.0 mi SSE 10.4 mph - N/A   Mostly Cloudy
2:54 PM 82.9 °F 85.0 °F 66.0 °F 56% 29.77 in 10.0 mi SSE 8.1 mph - N/A   Mostly Cloudy
3:54 PM 82.0 °F 84.1 °F 66.0 °F 58% 29.75 in 10.0 mi SE 12.7 mph 19.6 mph N/A   Scattered Clouds
4:27 PM 78.8 °F - 66.2 °F 65% 29.82 in 2.5 mi WSW 33.4 mph 43.7 mph 0.00 in Rain , Thunderstorm Thunderstorms and Rain
4:33 PM 66.2 °F - 62.6 °F 88% 29.90 in 1.5 mi SW 29.9 mph 43.7 mph 0.03 in Rain , Thunderstorm Heavy Thunderstorms and Rain
4:54 PM 63.0 °F - 61.0 °F 93% 29.94 in 1.0 mi SSW 16.1 mph 41.4 mph 0.13 in Rain , Thunderstorm Heavy Thunderstorms and Rain
5:04 PM 62.6 °F - 60.8 °F 94% 29.94 in 0.8 mi SSW 11.5 mph 20.7 mph 0.06 in Rain , Thunderstorm Heavy Thunderstorms and Rain
5:14 PM 62.6 °F - 62.6 °F 100% 29.94 in 1.2 mi SSW 6.9 mph - 0.12 in Rain , Thunderstorm Thunderstorms and Rain
5:36 PM 62.6 °F - 62.6 °F 100% 29.92 in 2.0 mi West 10.4 mph - 0.18 in Rain , Thunderstorm Thunderstorms and Rain
5:54 PM 64.0 °F - 62.1 °F 93% 29.92 in 2.0 mi West 5.8 mph - 0.23 in Rain , Thunderstorm Thunderstorms and Rain
6:04 PM 64.4 °F - 62.6 °F 94% 29.94 in 1.8 mi WSW 3.5 mph - 0.04 in Rain , Thunderstorm Thunderstorms and Rain
6:11 PM 64.4 °F - 62.6 °F 94% 29.94 in 2.0 mi SW 4.6 mph - 0.06 in Rain , Thunderstorm Thunderstorms and Rain
6:20 PM 64.4 °F - 62.6 °F 94% 29.95 in 2.5 mi SSW 4.6 mph - 0.09 in Rain , Thunderstorm Thunderstorms and Rain
6:38 PM 64.4 °F - 62.6 °F 94% 29.96 in 1.5 mi SSW 4.6 mph - 0.14 in Rain , Thunderstorm Thunderstorms and Rain
6:54 PM 64.0 °F - 62.1 °F 93% 29.96 in 1.8 mi Calm Calm - 0.21 in Rain , Thunderstorm Thunderstorms and Rain
7:01 PM 64.4 °F - 62.6 °F 94% 29.96 in 3.0 mi Calm Calm - 0.03 in Rain , Thunderstorm Thunderstorms and Rain
7:15 PM 64.4 °F - 62.6 °F 94% 29.95 in 4.0 mi NE 8.1 mph - 0.08 in Rain Rain
7:54 PM 64.0 °F - 62.1 °F 93% 29.94 in 7.0 mi East 10.4 mph - 0.17 in Rain Light Rain
8:54 PM 64.0 °F - 61.0 °F 90% 29.90 in 10.0 mi East 9.2 mph - 0.02 in   Mostly Cloudy
9:54 PM 63.0 °F - 60.1 °F 90% 29.86 in 10.0 mi East 6.9 mph - N/A   Partly Cloudy
10:54 PM 61.0 °F - 59.0 °F 93% 29.83 in 10.0 mi Calm Calm - N/A   Clear
11:54 PM 61.0 °F - 59.0 °F 93% 29.84 in 10.0 mi South 5.8 mph - N/A   Clear